DW8785 Weather Reports


time (UTC)temp
C
wind
direction
speed
KPH
gust
KPH
rain 1hr
cm
rain 24hr
cm
rain mn
cm
humidity
%
barometer
mb
20260903070052 22 17 0.0 0.0 0.00 0.00 0.00 64 1014.9
20260903064547 22 25 0.0 0.0 0.00 0.00 0.00 68 1014.8
20260903063043 21 23 0.0 0.0 0.00 0.00 0.00 70 1014.9
20260903061550 21 0 0.0 0.0 0.00 0.00 0.00 70 1014.8
20260903060035 21 6 0.0 0.0 0.00 0.00 0.00 71 1014.6
20260903054542 21 6 0.0 0.0 0.00 0.00 0.00 72 1014.7
20260903053031 21 4 0.0 0.0 0.00 0.00 0.00 73 1014.7
20260903051522 20 8 0.0 0.0 0.00 0.00 0.00 74 1014.5
20260903050015 20 0 0.0 0.0 0.00 0.00 0.00 75 1014.3
20260903044509 20 24 0.0 0.0 0.00 0.00 0.00 74 1014.2
20260903043009 21 24 0.0 0.0 0.00 0.00 0.00 72 1014.1
20260903041502 21 24 0.0 0.0 0.00 0.00 0.00 73 1014.0
20260903040100 21 24 0.0 0.0 0.00 0.00 0.00 74 1014.0
20260903034553 21 24 0.0 0.0 0.00 0.00 0.00 73 1014.0
20260903033101 21 24 0.0 0.0 0.00 0.00 0.00 72 1014.1
20260903031545 21 354 0.0 0.0 0.00 0.00 0.00 68 1014.1
20260903030044 21 318 0.0 0.0 0.00 0.00 0.00 72 1014.1
20260903024542 21 318 0.0 0.0 0.00 0.00 0.00 73 1014.1
20260903023032 21 318 0.0 0.0 0.00 0.00 0.00 73 1014.3
20260903021532 21 318 0.0 0.0 0.00 0.00 0.00 72 1014.0
20260903020027 21 318 0.0 0.0 0.00 0.00 0.00 72 1013.9
20260903014518 21 318 0.0 0.0 0.00 0.00 0.00 71 1013.8
20260903013013 21 318 0.0 0.0 0.00 0.00 0.00 73 1013.8
20260903011512 21 318 0.0 0.0 0.00 0.00 0.00 73 1013.5
20260903010005 21 318 0.0 0.0 0.00 0.00 0.00 72 1013.4
20260903004501 21 318 0.0 0.0 0.00 0.00 0.00 70 1013.5
20260903003104 21 318 0.0 0.0 0.00 0.00 0.00 67 1013.6
20260903001553 21 318 0.0 0.0 0.00 0.00 0.00 66 1013.7
20260903000053 21 318 0.0 0.0 0.00 0.00 0.00 66 1013.9
20260902234543 21 284 0.0 0.0 0.00 0.00 0.00 65 1014.0
20260902233040 21 275 0.0 0.0 0.00 0.00 0.00 65 1013.9
20260902231545 21 275 0.0 0.0 0.00 0.00 0.00 68 1013.9
20260902230031 21 275 0.0 0.0 0.00 0.00 0.00 69 1013.9
20260902224527 21 275 0.0 0.0 0.00 0.00 0.00 67 1013.8
20260902223023 22 274 0.0 0.0 0.00 0.00 0.00 61 1013.7
20260902221521 22 274 0.0 0.0 0.00 0.00 0.00 61 1013.7
20260902220018 21 285 0.0 0.0 0.00 0.00 0.00 64 1013.7
20260902214513 21 272 3.2 0.0 0.00 0.00 0.00 65 1013.5
20260902213011 21 277 11.3 0.0 0.00 0.00 0.00 66 1013.3
20260902211507 21 285 12.9 0.0 0.00 0.00 0.00 68 1013.3
20260902210004 21 258 12.9 0.0 0.00 0.00 0.00 71 1013.0
20260902204602 21 284 14.5 0.0 0.00 0.00 0.00 70 1013.1
20260902203056 21 357 12.9 0.0 0.00 0.00 0.00 69 1013.1
20260902201616 21 359 14.5 0.0 0.00 0.00 0.00 71 1013.2
20260902200052 21 357 14.5 0.0 0.00 0.00 0.00 76 1013.0
20260902194544 21 280 14.5 0.0 0.00 0.00 0.00 77 1013.2
20260902193039 21 359 12.9 0.0 0.00 0.00 0.00 73 1013.3
20260902191535 21 359 9.7 0.0 0.00 0.00 0.00 72 1013.6
20260902190031 22 359 9.7 0.0 0.00 0.00 0.00 71 1013.5
20260902184527 22 359 8.0 0.0 0.00 0.00 0.00 71 1013.4
20260902183029 22 359 8.0 0.0 0.00 0.00 0.00 73 1013.2
20260902181520 22 357 8.0 0.0 0.00 0.00 0.00 73 1013.2
20260902180018 22 357 0.0 0.0 0.00 0.00 0.00 70 1013.0
20260902174511 22 301 0.0 0.0 0.00 0.00 0.00 67 1013.2
20260902173006 22 301 0.0 0.0 0.00 0.00 0.00 67 1013.1
20260902171502 22 301 0.0 0.0 0.00 0.00 0.00 68 1013.1
20260902170100 22 294 0.0 0.0 0.00 0.00 0.00 70 1013.2
20260902164559 23 295 0.0 0.0 0.00 0.00 0.00 69 1013.2
20260902163051 22 295 3.2 0.0 0.00 0.00 0.00 69 1013.3
20260902161557 22 295 3.2 0.0 0.00 0.00 0.00 68 1013.4
20260902160040 23 282 0.0 0.0 0.00 0.00 0.00 65 1013.6
20260902154541 22 284 3.2 0.0 0.00 0.00 0.00 66 1013.9
20260902153037 22 281 0.0 0.0 0.00 0.00 0.00 63 1013.5
20260902151528 22 86 6.4 0.0 0.00 0.00 0.00 64 1013.5
20260902150026 23 140 3.2 0.0 0.00 0.00 0.00 65 1013.3
20260902144519 23 323 0.0 0.0 0.00 0.00 0.00 64 1012.8
20260902143020 24 41 4.8 0.0 0.00 0.00 0.00 61 1012.8
20260902141521 24 65 6.4 0.0 0.00 0.00 0.00 59 1012.8
20260902140009 25 32 8.0 0.0 0.00 0.00 0.00 58 1013.1
20260902134503 25 28 1.6 0.0 0.00 0.00 0.00 57 1013.1
20260902133103 25 31 4.8 0.0 0.00 0.00 0.00 57 1013.2
20260902131554 25 62 0.0 0.0 0.00 0.00 0.00 57 1013.3
20260902130051 25 58 3.2 0.0 0.00 0.00 0.00 56 1013.5
20260902124546 25 64 1.6 0.0 0.00 0.00 0.00 58 1013.6
20260902123040 25 117 3.2 0.0 0.00 0.00 0.00 57 1014.1
20260902121538 24 298 1.6 0.0 0.00 0.00 0.00 57 1014.1
20260902120033 25 93 3.2 0.0 0.00 0.00 0.00 57 1013.9
20260902114529 25 357 1.6 0.0 0.00 0.00 0.00 56 1014.0
20260902113023 25 42 4.8 0.0 0.00 0.00 0.00 57 1014.2
20260902111518 24 82 3.2 0.0 0.00 0.00 0.00 58 1014.7
20260902110015 24 69 8.0 0.0 0.00 0.00 0.00 58 1014.7
20260902104510 24 83 6.4 0.0 0.00 0.00 0.00 59 1014.9
20260902103005 25 68 6.4 0.0 0.00 0.00 0.00 57 1015.0
20260902101503 25 71 4.8 0.0 0.00 0.00 0.00 58 1015.1
20260902100057 24 0 6.4 0.0 0.00 0.00 0.00 57 1015.0
20260902094552 24 59 8.0 0.0 0.00 0.00 0.00 59 1015.1
20260902093111 24 73 4.8 0.0 0.00 0.00 0.00 58 1015.3
20260902091551 23 119 3.2 0.0 0.00 0.00 0.00 57 1015.1
20260902090045 23 45 4.8 0.0 0.00 0.00 0.00 57 1015.0
20260902084547 23 52 1.6 0.0 0.00 0.00 0.00 59 1014.9
20260902083040 23 78 1.6 0.0 0.00 0.00 0.00 62 1014.8
20260902081526 23 40 0.0 0.0 0.00 0.00 0.00 63 1014.5
20260902080023 23 32 0.0 0.0 0.00 0.00 0.00 65 1014.5
20260902074517 22 291 0.0 0.0 0.00 0.00 0.00 69 1014.6
20260902073012 21 289 0.0 0.0 0.00 0.00 0.00 72 1014.5
20260902071508 21 291 3.2 0.0 0.00 0.00 0.00 73 1014.3